Location: Cabeza Gorda
(40.0667°N, 4.9667°W)
Time: 19:25:17
(UTC+00:00)

USA 234 - Pass Details

Date: 15 January 2026
Orbit: 1102 x 1106 km, 123.0° (Epoch: 4 January)

Event Time Altitude Azimuth Distance (km) Brightness Sun altitude
Rises 06:57:00 0° 45° (NE) 3,931 6.5 -8.4°
Reaches altitude 10° 06:59:29 10° 45° (NE) 2,970 5.9 -7.9°
Maximum altitude 07:06:03 83° 320° (NW) 1,117 3.3 -6.8°
Drops below altitude 10° 07:12:36 10° 232° (SW) 2,956 5.2 -5.6°
Sets 07:15:04 0° 232° (SW) 3,911 5.9 -5.2°
